This is the latest recevied weather packets stored in our database for station/object KD7CIH. If no packets are shown the sender has not sent any weather packets the latest 10 day(s).
| Time | Temp. | Humidity | Pressure | Rain* | Wind** | Luminosity | Snow |
|---|---|---|---|---|---|---|---|
| 1788055625 | 16.11° C | 68% | 1014.5 hPa | 0 mm | - | - | - |
| 1788055325 | 16.11° C | 68% | 1014.5 hPa | 0 mm | - | - | - |
| 1788055151 | 16.11° C | 69% | 1014.7 hPa | 0 mm | - | - | - |
| 1788054852 | 16.11° C | 69% | 1014.8 hPa | 0 mm | - | - | - |
| 1788054428 | 16.11° C | 68% | 1014.8 hPa | 0 mm | - | - | - |
| 1788054127 | 16.11° C | 68% | 1015.2 hPa | 0 mm | - | - | - |
| 1788053828 | 16.11° C | 68% | 1015.1 hPa | 0 mm | - | - | - |
| 1788053526 | 16.11° C | 69% | 1015.3 hPa | 0 mm | - | - | - |
| 1788053228 | 16.11° C | 68% | 1015.3 hPa | 0 mm | - | - | - |
| 1788053052 | 16.11° C | 68% | 1015.2 hPa | 0 mm | - | - | - |
| 1788052627 | 16.11° C | 67% | 1015.3 hPa | 0 mm | - | - | - |
| 1788052456 | 16.11° C | 69% | 1015.3 hPa | 0 mm | - | - | - |
| 1788052026 | 16.11° C | 68% | 1015.3 hPa | 0 mm | - | - | - |
| 1788051727 | 16.11° C | 68% | 1015.3 hPa | 0 mm | - | - | - |
| 1788051426 | 16.67° C | 68% | 1015.2 hPa | 0 mm | - | - | - |
| 1788051248 | 16.67° C | 68% | 1015.4 hPa | 0 mm | - | - | - |
| 1788050815 | 16.67° C | 68% | 1015.4 hPa | 0 mm | - | - | - |
| 1788050510 | 16.67° C | 67% | 1015.4 hPa | 0 mm | - | - | - |
| 1788050202 | 17.22° C | 66% | 1015.2 hPa | 0 mm | - | - | - |
| 1788049897 | 17.78° C | 64% | 1015.2 hPa | 0 mm | - | - | - |
| 1788049594 | 17.78° C | 65% | 1015.2 hPa | 0 mm | - | - | - |
| 1788049295 | 18.33° C | 65% | 1015.2 hPa | 0 mm | - | - | - |
| 1788049122 | 18.33° C | 62% | 1015.2 hPa | 0 mm | - | - | - |
| 1788048822 | 18.33° C | 59% | 1014.9 hPa | 0 mm | - | - | - |
| 1788048394 | 18.33° C | 60% | 1014.9 hPa | 0 mm | - | - | - |
* Rain latest hour (hover to see other rain measurements)
** Current wind speed in m/s (hover to see current wind gust speed)